This is the latest recevied weather packets stored in our database for station/object WP3XM. If no packets are shown the sender has not sent any weather packets the latest 10 day(s).
| Time | Temp. | Humidity | Pressure | Rain* | Wind** | Luminosity | Snow |
|---|---|---|---|---|---|---|---|
| 1777656222 | 30.56° C | 68% | 1015.9 hPa | 0 mm | - | 608 W/m² | - |
| 1777655918 | 30° C | 68% | 1015.8 hPa | 0 mm | - | 468 W/m² | - |
| 1777655615 | 30.56° C | 70% | 1016 hPa | 0 mm | - | 1053 W/m² | - |
| 1777655312 | 30° C | 70% | 1016.1 hPa | 0 mm | - | 1133 W/m² | - |
| 1777655009 | 30° C | 70% | 1015.8 hPa | 0 mm | - | 990 W/m² | - |
| 1777654706 | 30° C | 68% | 1016 hPa | 0 mm | - | 800 W/m² | - |
| 1777654404 | 30° C | 68% | 1016.2 hPa | 0 mm | - | 984 W/m² | - |
| 1777654101 | 30° C | 69% | 1016.2 hPa | 0 mm | - | 874 W/m² | - |
| 1777653799 | 30.56° C | 68% | 1016.3 hPa | 0 mm | - | 331 W/m² | - |
| 1777653494 | 30.56° C | 67% | 1016.4 hPa | 0 mm | - | 866 W/m² | - |
| 1777653192 | 30.56° C | 65% | 1016.3 hPa | 0 mm | - | 474 W/m² | - |
| 1777652888 | 30.56° C | 65% | 1016.3 hPa | 0 mm | - | 1053 W/m² | - |
| 1777652585 | 30.56° C | 65% | 1016.2 hPa | 0 mm | - | 1063 W/m² | - |
| 1777652281 | 30° C | 67% | 1016.4 hPa | 0 mm | - | 1051 W/m² | - |
| 1777651979 | 30° C | 68% | 1016.5 hPa | 0 mm | - | 831 W/m² | - |
| 1777651675 | 30° C | 66% | 1016.6 hPa | 0 mm | - | 381 W/m² | - |
| 1777651372 | 30° C | 67% | 1016.6 hPa | 0 mm | - | 1039 W/m² | - |
| 1777651070 | 30.56° C | 66% | 1016.4 hPa | 0 mm | - | 488 W/m² | - |
| 1777650766 | 30.56° C | 66% | 1016.4 hPa | 0 mm | - | 565 W/m² | - |
| 1777650463 | 30.56° C | 65% | 1016.4 hPa | 0 mm | - | 380 W/m² | - |
| 1777650160 | 30.56° C | 66% | 1016.6 hPa | 0 mm | - | 1054 W/m² | - |
| 1777649858 | 30.56° C | 65% | 1016.5 hPa | 0 mm | - | 738 W/m² | - |
| 1777649555 | 30.56° C | 66% | 1016.6 hPa | 0 mm | - | 742 W/m² | - |
| 1777649251 | 30° C | 68% | 1016.5 hPa | 0 mm | - | 1057 W/m² | - |
| 1777648948 | 30.56° C | 66% | 1016.6 hPa | 0 mm | - | 990 W/m² | - |
* Rain latest hour (hover to see other rain measurements)
** Current wind speed in m/s (hover to see current wind gust speed)